Estación Meteorológica de la Universidad de Murcia
Estación Meteorológica de la Universidad de Murcia
Universidad de Murcia
 

Temperatura ambienteTemperatura ambiente

 

Máxima: 30,2 ºC a las 15:32:00 del día 25/09/2018
Mínima: 22,3 ºC a las 07:25:00 del día 25/09/2018

||Temperatura máxima últimos meses|| ---- ||Temperatura mínima últimos meses||


Temperatura máxima

  • 1 - 30,2 ºC del día 25/09/2018
  • 2 - 32 ºC del día 21/09/2018
  • 3 - 32 ºC del día 20/09/2018
  • 4 - 32 ºC del día 19/09/2018
  • 5 - 31,7 ºC del día 18/09/2018
  • 6 - 28,9 ºC del día 17/09/2018
  • 7 - 29,9 ºC del día 16/09/2018
  • 8 - 25,4 ºC del día 15/09/2018
  • 9 - 30,8 ºC del día 14/09/2018
  • 10 - 32,8 ºC del día 13/09/2018
  • 11 - 32,2 ºC del día 12/09/2018
  • 12 - 29,9 ºC del día 11/09/2018
  • 13 - 31,1 ºC del día 10/09/2018
  • 14 - 26,6 ºC del día 09/09/2018
  • 15 - 24,9 ºC del día 08/09/2018
  • 16 - 31,2 ºC del día 07/09/2018
  • 17 - 33,9 ºC del día 06/09/2018
  • 18 - 32,9 ºC del día 05/09/2018
  • 19 - 33,7 ºC del día 04/09/2018
  • 20 - 31,4 ºC del día 03/09/2018
  • 21 - 30,4 ºC del día 02/09/2018
  • 22 - 29,7 ºC del día 01/09/2018
  • 23 - 30,2 ºC del día 31/08/2018
  • 24 - 30 ºC del día 30/08/2018
  • 25 - 32,3 ºC del día 29/08/2018
  • 26 - 31,5 ºC del día 28/08/2018
  • 27 - 31,2 ºC del día 27/08/2018
  • 28 - 30,6 ºC del día 26/08/2018
  • 29 - 32 ºC del día 25/08/2018
  • 30 - 33,1 ºC del día 24/08/2018
  • 31 - 32,5 ºC del día 23/08/2018
  • 32 - 31,1 ºC del día 22/08/2018
  • 33 - 31,8 ºC del día 21/08/2018
  • 34 - 30,4 ºC del día 20/08/2018
  • 35 - 28,6 ºC del día 19/08/2018
  • 36 - 28,9 ºC del día 18/08/2018
  • 37 - 29,6 ºC del día 17/08/2018
  • 38 - 30,5 ºC del día 16/08/2018
  • 39 - 31,2 ºC del día 15/08/2018
  • 40 - 31,9 ºC del día 14/08/2018
  • 41 - 34,6 ºC del día 13/08/2018
  • 42 - 31,8 ºC del día 12/08/2018
  • 43 - 31,2 ºC del día 11/08/2018
  • 44 - 31,8 ºC del día 10/08/2018
  • 45 - 33,4 ºC del día 09/08/2018
  • 46 - 32,4 ºC del día 08/08/2018
  • 47 - 33,4 ºC del día 07/08/2018
  • 48 - 36,5 ºC del día 06/08/2018
  • 49 - 34,6 ºC del día 05/08/2018
  • 50 - 33,9 ºC del día 04/08/2018
  • 51 - 34,8 ºC del día 03/08/2018
  • 52 - 33,1 ºC del día 02/08/2018
  • 53 - 35,6 ºC del día 01/08/2018
  • 54 - 36,9 ºC del día 31/07/2018
  • 55 - 35,3 ºC del día 30/07/2018
  • 56 - 36,9 ºC del día 29/07/2018
  • 57 - 39,2 ºC del día 28/07/2018
  • 58 - 34,8 ºC del día 27/07/2018

||Volver al inicio de la página||


Temperatura mínima

  • 1 - 22,3 ºC del día 25/09/2018
  • 2 - 21,1 ºC del día 21/09/2018
  • 3 - 21,1 ºC del día 20/09/2018
  • 4 - 20,1 ºC del día 19/09/2018
  • 5 - 21,6 ºC del día 18/09/2018
  • 6 - 21,8 ºC del día 17/09/2018
  • 7 - 19,1 ºC del día 16/09/2018
  • 8 - 20,4 ºC del día 15/09/2018
  • 9 - 21,3 ºC del día 14/09/2018
  • 10 - 21,1 ºC del día 13/09/2018
  • 11 - 22,4 ºC del día 12/09/2018
  • 12 - 20,1 ºC del día 11/09/2018
  • 13 - 19,2 ºC del día 10/09/2018
  • 14 - 19,9 ºC del día 09/09/2018
  • 15 - 19,5 ºC del día 08/09/2018
  • 16 - 22,7 ºC del día 07/09/2018
  • 17 - 20,2 ºC del día 06/09/2018
  • 18 - 21,2 ºC del día 05/09/2018
  • 19 - 21,8 ºC del día 04/09/2018
  • 20 - 22,6 ºC del día 03/09/2018
  • 21 - 21,4 ºC del día 02/09/2018
  • 22 - 22 ºC del día 01/09/2018
  • 23 - 22,2 ºC del día 31/08/2018
  • 24 - 23,1 ºC del día 30/08/2018
  • 25 - 20,5 ºC del día 29/08/2018
  • 26 - 22 ºC del día 28/08/2018
  • 27 - 22,7 ºC del día 27/08/2018
  • 28 - 22,5 ºC del día 26/08/2018
  • 29 - 22,9 ºC del día 25/08/2018
  • 30 - 20,2 ºC del día 24/08/2018
  • 31 - 21 ºC del día 23/08/2018
  • 32 - 19,2 ºC del día 22/08/2018
  • 33 - 19 ºC del día 21/08/2018
  • 34 - 19,1 ºC del día 20/08/2018
  • 35 - 21,9 ºC del día 19/08/2018
  • 36 - 20,7 ºC del día 18/08/2018
  • 37 - 20,6 ºC del día 17/08/2018
  • 38 - 20,3 ºC del día 16/08/2018
  • 39 - 23,6 ºC del día 15/08/2018
  • 40 - 22,8 ºC del día 14/08/2018
  • 41 - 24,3 ºC del día 13/08/2018
  • 42 - 21,9 ºC del día 12/08/2018
  • 43 - 24,3 ºC del día 11/08/2018
  • 44 - 24,1 ºC del día 10/08/2018
  • 45 - 23 ºC del día 09/08/2018
  • 46 - 23,5 ºC del día 08/08/2018
  • 47 - 24,2 ºC del día 07/08/2018
  • 48 - 24,1 ºC del día 06/08/2018
  • 49 - 22,2 ºC del día 05/08/2018
  • 50 - 22,2 ºC del día 04/08/2018
  • 51 - 22,5 ºC del día 03/08/2018
  • 52 - 22,3 ºC del día 02/08/2018
  • 53 - 21,5 ºC del día 01/08/2018
  • 54 - 23,2 ºC del día 31/07/2018
  • 55 - 22,6 ºC del día 30/07/2018
  • 56 - 21,9 ºC del día 29/07/2018
  • 57 - 21,5 ºC del día 28/07/2018
  • 58 - 21,3 ºC del día 27/07/2018

 

|| Humedad relativa|| Velocidad y dirección del viento|| Precipitación|| Radiación Solar Global y PAR|| Temperatura y humedad del suelo|| Presión atmosférica|| Más información|| Volver a la página principal|| Volver al inicio de la página||


Estación Meteorológica de la Universidad de Murcia
http://estacion.um.es/
Informacion actualizada a: 26/09/2018 a las 02:32:00